Location: Vancouver
(49.2500°N, 123.1330°W)
Time: 16:42:13
(UTC-07:00)

YAOGAN 6 - Pass Details

Date: 26 February 2018
Orbit: 466 x 508 km, 97.1° (Epoch: 23 June)

Event Time Altitude Azimuth Distance (km) Brightness Sun altitude
Exits shadow 18:47:22 14° 82° (E) 1,441 4.3 -9.9°
Maximum altitude 18:48:20 15° 63° (ENE) 1,374 4.3 -10.1°
Drops below altitude 10° 18:50:30 10° 26° (NNE) 1,673 5.0 -10.5°
Sets 18:53:12 0° 3° (N) 2,549 6.2 -10.9°
